When you browse on this site, cookies collect data to enhance your experience and personalize the content and advertising you see.
Visit our Privacy Policy to learn more. By continuing to use the site, you agree to this use of cookies and data.
  • In Spain
  • List of Countries
  • For 7 days
  • Water Temperature
  • Satellite Maps
  • Weather Map
  • Weather Widgets
  • user-avatar
    Login

    Hourly Weather Ties

    Today, 14 December, Friday

    Time Temperature Precipitation Wind Pressure Humidity
    00:00 +25°C° 0 mm 5 mps 751 mmHg 19%
    01:00 +25°C° 0 mm 5 mps 751 mmHg 19%
    02:00 +25°C° 0 mm 5 mps 751 mmHg 18%
    03:00 +25°C° 0 mm 5 mps 751 mmHg 18%
    04:00 +25°C° 0 mm 5 mps 751 mmHg 17%
    05:00 +24°C° 0 mm 6 mps 751 mmHg 17%
    06:00 +24°C° 0 mm 6 mps 752 mmHg 16%
    07:00 +26°C° 0 mm 6 mps 752 mmHg 15%
    08:00 +27°C° 0 mm 6 mps 752 mmHg 14%
    09:00 +29°C° 0 mm 6 mps 752 mmHg 13%
    10:00 +32°C° 0 mm 6 mps 752 mmHg 12%
    11:00 +34°C° 0 mm 6 mps 752 mmHg 11%
    12:00 +36°C° 0 mm 6 mps 752 mmHg 10%
    13:00 +39°C° 0 mm 5 mps 752 mmHg 10%
    14:00 +41°C° 0 mm 5 mps 751 mmHg 10%
    15:00 +39°C° 0 mm 5 mps 751 mmHg 11%
    16:00 +37°C° 0 mm 4 mps 751 mmHg 13%
    17:00 +36°C° 0 mm 4 mps 751 mmHg 15%
    18:00 +34°C° 0 mm 4 mps 751 mmHg 18%
    19:00 +32°C° 0 mm 5 mps 752 mmHg 20%
    20:00 +29°C° 0 mm 5 mps 752 mmHg 23%
    21:00 +29°C° 0 mm 5 mps 753 mmHg 20%
    22:00 +29°C° 0 mm 5 mps 753 mmHg 18%
    23:00 +29°C° 0 mm 5 mps 753 mmHg 15%

    Tomorrow, 15 December, Saturday

    Time Temperature Precipitation Wind Pressure Humidity
    00:00 +29°C° 0 mm 5 mps 753 mmHg 14%
    01:00 +29°C° 0 mm 5 mps 753 mmHg 14%
    02:00 +28°C° 0 mm 5 mps 753 mmHg 14%
    03:00 +28°C° 0 mm 5 mps 753 mmHg 14%
    04:00 +28°C° 0 mm 5 mps 753 mmHg 14%
    05:00 +28°C° 0 mm 5 mps 753 mmHg 15%
    06:00 +28°C° 0 mm 5 mps 753 mmHg 14%
    07:00 +28°C° 0 mm 6 mps 754 mmHg 14%
    08:00 +29°C° 0 mm 6 mps 754 mmHg 13%
    09:00 +30°C° 0 mm 5 mps 755 mmHg 12%
    10:00 +32°C° 0 mm 5 mps 755 mmHg 12%
    11:00 +33°C° 0 mm 5 mps 755 mmHg 11%
    12:00 +34°C° 0 mm 5 mps 755 mmHg 12%
    13:00 +34°C° 0 mm 4 mps 754 mmHg 12%
    14:00 +34°C° 0 mm 4 mps 754 mmHg 13%
    15:00 +34°C° 0 mm 4 mps 754 mmHg 15%
    16:00 +33°C° 0 mm 3 mps 753 mmHg 17%
    17:00 +33°C° 0 mm 3 mps 753 mmHg 18%
    18:00 +30°C° 0 mm 3 mps 754 mmHg 20%
    19:00 +29°C° 0 mm 3 mps 754 mmHg 22%
    20:00 +28°C° 0 mm 3 mps 754 mmHg 23%
    21:00 +27°C° 0 mm 3 mps 754 mmHg 26%
    22:00 +27°C° 0 mm 3 mps 754 mmHg 29%
    23:00 +26°C° 0 mm 3 mps 754 mmHg 32%

    Day after tomorrow, 16 December, Sunday

    Time Temperature Precipitation Wind Pressure Humidity
    00:00 +26°C° 0 mm 4 mps 754 mmHg 31%
    01:00 +26°C° 0 mm 4 mps 753 mmHg 30%
    02:00 +27°C° 0 mm 5 mps 753 mmHg 29%
    03:00 +26°C° 0 mm 5 mps 753 mmHg 28%
    04:00 +26°C° 0 mm 5 mps 753 mmHg 27%
    05:00 +24°C° 0 mm 6 mps 753 mmHg 25%
    06:00 +26°C° 0 mm 6 mps 753 mmHg 23%
    07:00 +26°C° 0 mm 6 mps 754 mmHg 22%
    08:00 +27°C° 0 mm 6 mps 754 mmHg 20%
    09:00 +29°C° 0 mm 6 mps 754 mmHg 17%
    10:00 +33°C° 0 mm 6 mps 754 mmHg 13%
    11:00 +35°C° 0 mm 6 mps 754 mmHg 10%
    12:00 +36°C° 0 mm 6 mps 753 mmHg 11%
    13:00 +36°C° 0 mm 6 mps 752 mmHg 12%
    14:00 +38°C° 0 mm 6 mps 752 mmHg 12%
    15:00 +35°C° 0 mm 6 mps 752 mmHg 17%
    16:00 +33°C° 0 mm 7 mps 752 mmHg 22%
    17:00 +32°C° 0 mm 7 mps 751 mmHg 27%
    18:00 +29°C° 0 mm 7 mps 752 mmHg 36%
    19:00 +27°C° 0 mm 7 mps 752 mmHg 44%
    20:00 +24°C° 0 mm 6 mps 753 mmHg 53%
    21:00 +24°C° 0 mm 6 mps 753 mmHg 54%
    22:00 +23°C° 0 mm 6 mps 753 mmHg 55%
    23:00 +23°C° 0 mm 6 mps 753 mmHg 56%

    17 December, Monday

    Time Temperature Precipitation Wind Pressure Humidity
    00:00 +23°C° 0 mm 6 mps 753 mmHg 56%
    01:00 +23°C° 0 mm 6 mps 752 mmHg 56%
    02:00 +22°C° 0 mm 6 mps 752 mmHg 55%
    03:00 +22°C° 0 mm 6 mps 752 mmHg 55%
    04:00 +22°C° 0 mm 6 mps 751 mmHg 55%
    05:00 +21°C° 0 mm 6 mps 751 mmHg 55%
    06:00 +22°C° 0 mm 6 mps 752 mmHg 49%
    07:00 +23°C° 0 mm 6 mps 752 mmHg 43%
    08:00 +24°C° 0 mm 6 mps 753 mmHg 37%
    09:00 +28°C° 0 mm 6 mps 753 mmHg 28%
    10:00 +32°C° 0 mm 6 mps 753 mmHg 19%
    11:00 +34°C° 0 mm 6 mps 753 mmHg 9%
    12:00 +35°C° 0 mm 5 mps 752 mmHg 9%
    13:00 +36°C° 0 mm 5 mps 751 mmHg 9%
    14:00 +37°C° 0 mm 4 mps 750 mmHg 9%
    15:00 +36°C° 0 mm 4 mps 750 mmHg 11%
    16:00 +35°C° 0 mm 5 mps 750 mmHg 14%
    17:00 +34°C° 0 mm 5 mps 750 mmHg 16%
    18:00 +32°C° 0 mm 5 mps 751 mmHg 21%
    19:00 +29°C° 0 mm 5 mps 751 mmHg 26%
    20:00 +26°C° 0 mm 5 mps 752 mmHg 31%
    21:00 +26°C° 0 mm 5 mps 752 mmHg 32%
    22:00 +25°C° 0 mm 5 mps 752 mmHg 32%
    23:00 +25°C° 0 mm 5 mps 752 mmHg 33%

    18 December, Tuesday

    Time Temperature Precipitation Wind Pressure Humidity
    00:00 +23°C° 0 mm 5 mps 752 mmHg 29%
    01:00 +23°C° 0 mm 5 mps 751 mmHg 25%
    02:00 +23°C° 0 mm 5 mps 751 mmHg 21%
    03:00 +22°C° 0 mm 5 mps 751 mmHg 20%
    04:00 +22°C° 0 mm 5 mps 751 mmHg 19%
    05:00 +22°C° 0 mm 5 mps 751 mmHg 18%
    06:00 +23°C° 0 mm 5 mps 752 mmHg 17%
    07:00 +25°C° 0 mm 5 mps 752 mmHg 16%
    08:00 +24°C° 0 mm 6 mps 752 mmHg 15%
    09:00 +28°C° 0 mm 5 mps 753 mmHg 13%
    10:00 +32°C° 0 mm 5 mps 753 mmHg 11%
    11:00 +35°C° 0 mm 5 mps 753 mmHg 9%
    12:00 +36°C° 0 mm 4 mps 752 mmHg 9%
    13:00 +36°C° 0 mm 4 mps 751 mmHg 9%
    14:00 +37°C° 0 mm 3 mps 750 mmHg 8%
    15:00 +36°C° 0 mm 4 mps 750 mmHg 11%
    16:00 +35°C° 0 mm 4 mps 750 mmHg 13%
    17:00 +34°C° 0 mm 5 mps 750 mmHg 15%
    18:00 +30°C° 0 mm 5 mps 751 mmHg 22%
    19:00 +28°C° 0 mm 5 mps 751 mmHg 28%
    20:00 +26°C° 0 mm 5 mps 752 mmHg 34%
    21:00 +25°C° 0 mm 5 mps 752 mmHg 36%
    22:00 +25°C° 0 mm 5 mps 752 mmHg 39%
    23:00 +23°C° 0 mm 5 mps 752 mmHg 42%

    19 December, Wednesday

    Time Temperature Precipitation Wind Pressure Humidity
    00:00 +23°C° 0 mm 5 mps 751 mmHg 37%
    01:00 +22°C° 0 mm 4 mps 751 mmHg 32%
    02:00 +22°C° 0 mm 4 mps 751 mmHg 28%
    03:00 +21°C° 0 mm 4 mps 751 mmHg 25%
    04:00 +21°C° 0 mm 4 mps 751 mmHg 22%
    05:00 +21°C° 0 mm 4 mps 751 mmHg 20%
    06:00 +22°C° 0 mm 5 mps 751 mmHg 19%
    07:00 +23°C° 0 mm 5 mps 752 mmHg 17%
    08:00 +25°C° 0 mm 5 mps 752 mmHg 16%
    09:00 +28°C° 0 mm 5 mps 752 mmHg 14%
    10:00 +32°C° 0 mm 4 mps 752 mmHg 12%
    11:00 +34°C° 0 mm 4 mps 752 mmHg 9%
    12:00 +35°C° 0 mm 4 mps 751 mmHg 9%
    13:00 +36°C° 0 mm 3 mps 750 mmHg 9%
    14:00 +37°C° 0 mm 3 mps 750 mmHg 9%
    15:00 +35°C° 0 mm 3 mps 750 mmHg 12%
    16:00 +34°C° 0 mm 4 mps 750 mmHg 15%
    17:00 +33°C° 0 mm 4 mps 749 mmHg 18%
    18:00 +29°C° 0 mm 4 mps 750 mmHg 25%
    19:00 +27°C° 0 mm 4 mps 750 mmHg 31%
    20:00 +25°C° 0 mm 4 mps 751 mmHg 37%
    21:00 +23°C° 0 mm 4 mps 751 mmHg 40%
    22:00 +23°C° 0 mm 4 mps 751 mmHg 43%
    23:00 +22°C° 0 mm 4 mps 751 mmHg 46%
    Show more